BREEZE-M R/B, 40365

Orbit data source: Space-Track

BREEZE-M R/B, 40365 is space debris in HEO originally from a launch on Sat, 27 Dec 2014 UTC launched from the Tyuratam Missile And Space Complex (TTMTR). Debris objects in space refer to the collection of defunct objects orbiting the Earth. Examples of debris include non-operational satellites, rocket bodies, and fragments generated from explosions, collisions, or faulty payload assembly.

Loading next visibility...
Identifier
40365, 2014-089B
Orbit
HEO
Last TLE update
15 hours ago
Origin
Manufacturer
Khrunichev
Mission
Spacecraft
Bus & Motor
BRIZ, Unknown motor
Mass
~1,600 kg wet, 1,600 kg dry
Launch date (UTC)
2014-12-27 (11 years ago)
Launch vehicle
Unknown
Launch site
Tyuratam Missile And Space Complex (TTMTR)
Object type
Payload
Rocket body
Debris
Shape & HBR
Cyl, 4 m
Radar Cross Section
14.451 m², Large (>1 m²)

Expand to show TLE details & history

TLE from 15 hours ago
0 BREEZE-M R/B
1 40365U 14089B   25191.53971524 -.00000142  00000-0  00000+0 0  9991
2 40365  23.9751  36.1158 6073421 236.7430  50.2411  2.19523826 84484
Epoch: 2025-07-10T12:57Z
TLE epoch observation values (Epoch: 2025-07-10T12:57:11.396Z)
Latitude
0.00001°
Longitude
-86.83566°
Altitude
17,259.564 km
Speed
4.217 km/s
True Right ascension
02h 24m 39s
True Declination
0° 00' 00"
Sunlit
Object was in daylight at epoch
Visualization orbit readout
Latitude
20.65369°
Longitude
-29.13743°
Altitude
33,747.468 km
Speed
1.983 km/s
Apparent Right ascension
06h 03m 04s
Apparent Declination
13° 29' 41"
Sunlit
Object is in daylight
Visualization observer readout
Local Sidereal Time
16:25:14
Azimuth
331.676° NNW
Elevation
-31.948°
Doppler factor
1
Orbital elements
Apogee altitude
33,822.711 km
Perigee altitude
3,442.536 km
Semi-major axis
25,010.76 km
Eccentricity
0.60734
Inclination
23.9751°
RAAN
36.1158°
Arg. of periapsis
236.743°
True anomaly
Unknown
Mean anomaly
50.2411°
Eccentric anomaly
Unknown
Mean motion
0.54872 °/min
Orbital period
656.07 mins
BSTAR
0
Loading maneuver chart data...
Loading SW <> Apogee altitude chart data...
Loading historical data...
Loading historical data...
Loading historical data...
Loading historical data...
Loading historical data...
Loading historical data...
Loading historical data...
Other satellites on launch #89 in the year 2014 (2014-12-27 UTC)

BREEZE-M R/B Visibility forecast

Observer location: undefined°, undefined°

Span
Click to sort rows by Start time (UTC) header in descending order
Start Az.
Max El. time (UTC)
Max El. Az.
Max El.
End time (UTC)
End Az.
541 mins2025-07-11 10:18:24.160Z132.9° SE2025-07-11 17:01:24.160Z105.931° ESE36.526°2025-07-11 19:19:24.160Z95.487° ESE
|